19:11
Airports
History
Links
Donate
Help keep this website running!
PayPal
Bitcoin
This page is community maintained. The information is intended for PC simulator navigation or reference.
Always use approved charts for navigation.
EDHE
Uetersen
Uetersen (EDHE)
Heist, Schleswig-Holstein, Germany (25492)
(C)
Lat/Lng:53° 38' 47.71" N / 9° 42' 11.48" E
53.646587 / 9.70319
Elevation:22'ft / 7mMSL
ID / ICAO:EDHE
Runways:1
Longest:09-27
Grass 1,094m / 3,591ft
Controlled:Yes
Nearby Weather18:50 GMT 2017-12-11
Nearby weather at EDHI, Hamburg Finkenwerder located 9.4 nautical miles from EDHE
Altimeter: 29.03
Visibility: 4.3 statute miles
Wind: 8 knots (from 080°)
Temp: 1°c / 34°f
Humidity: %

METAR: EDHI 111850Z 08008KT 7000 -SN OVC007 01/M00 Q0983

(Powered by phpweather)
Airport Radio Frequencies
AWOS 3: 125.1
Tower: 122.7
Nearby VORs <50NM
Nearby NDBs
Runway 09 / 27
Dimensions:1094.4 x 39.9m 3591' x 131'ft
Surface:Grass
Runway 09 [A]Runway 27 [B]
Heading:093°TH 273°TH
Lat:
Lng:
53° 38' 48.8"N
9° 41' 41.48"E
53° 38' 46.63"N
9° 42' 41.49"E
User Notes and Comments
53° 38' 47.71" N / 9° 42' 11.48" E
Distance To
Airport ID:
Nearby Airports
(C) Ahrenlohe 4.2 NM
EDHO NNE 23°
(C) Hamburg Finkenwerder 9.4 NM
EDHI ( WX ) SE 144°
(U) Stade 10.3 NM
EDHS SW 234°
(C) Hamburg 11.5 NM
EDDH ( WX ) E 93°
(U) Hartenholm 23.1 NM
EDHM NE 36°
(C) Hungriger Wolf 24.5 NM
EDHF NNW 347°
(C) Seedorf 28.2 NM
EDXS SW 220°
VFR Chart
Flight Planning at SkyVector.com